This demonstration page uses our WeatherBlox Daily Observations layout. Learn more.

Left ArrowRight Arrow

39.92423, -83.80882

Hourly Observations for January 23, 2021

Temp ( °F °C ) Dew Point ( °F °C ) Humidity (%) Winds ( mph kmh ) Pressure ( in mb ) Visibility ( mi km ) Precip ( " mm )
12:56 am 00:56 Clear 16 -8.9 12 -11.1 84 84 NW 9 15 30.27 1025 10 16.0934 0 0
1:56 am 01:56 Clear 16 -8.9 12 -11.1 84 84 WNW 8 13 30.29 1026 10 16.0934 0 0
2:39 am 02:39 Mostly Cloudy 16 -9 12 -11 86 86 WNW 9 15 30.36 1028 10 16.0934 0 0
2:56 am 02:56 Mostly Cloudy with Light Snow 15 -9.4 12 -11.1 88 88 WNW 8 13 30.32 1027 9 14.48406 0.001 0.001
3:56 am 03:56 Cloudy with Light Snow 16 -8.9 13 -10.6 88 88 W 8 13 30.33 1027 9 14.48406 0.001 0.001
4:56 am 04:56 Mostly Cloudy with Light Snow 15 -9.4 12 -11.1 88 88 W 7 11 30.33 1027 9 14.48406 0.001 0.001
5:08 am 05:08 Partly Cloudy with Scattered Snow Showers 14 -10 12 -11 92 92 W 7 11 30.39 1029 9 14.48406 0.001 0.001
5:56 am 05:56 Clear 14 -10 12 -11.1 92 92 WNW 8 13 30.35 1028 10 16.0934 0.001 0.001
6:56 am 06:56 Clear 13 -10.6 11 -11.7 92 92 WNW 6 9 30.38 1029 10 16.0934 0 0
7:56 am 07:56 Sunny 11 -11.7 10 -12.2 96 96 W 3 6 30.42 1030 10 16.0934 0 0
8:56 am 08:56 Sunny 16 -8.9 13 -10.6 88 88 Calm 30.41 1030 10 16.0934 0 0
9:56 am 09:56 Sunny 20 -6.7 11 -11.7 68 68 NNE 7 11 30.43 1031 10 16.0934 0 0
10:56 am 10:56 Sunny 23 -5 11 -11.7 60 60 NNE 7 11 30.45 1031 10 16.0934 0 0
11:56 am 11:56 Sunny 25 -3.9 11 -11.7 55 55 N 7 11 30.44 1031 10 16.0934 0 0
12:56 pm 12:56 Sunny 26 -3.3 10 -12.2 51 51 Calm 30.42 1030 10 16.0934 0 0
1:56 pm 13:56 Sunny 27 -2.8 11 -11.7 51 51 VRB 5 7 30.4 1030 10 16.0934 0 0
2:56 pm 14:56 Sunny 30 -1.1 12 -11.1 47 47 WNW 3 6 30.39 1029 10 16.0934 0 0
3:56 pm 15:56 Sunny 30 -1.1 11 -11.7 45 45 Calm 30.39 1029 10 16.0934 0 0
4:56 pm 16:56 Sunny 29 -1.7 12 -11.1 49 49 Calm 30.38 1029 10 16.0934 0 0
5:56 pm 17:56 Clear 27 -2.8 13 -10.6 55 55 ESE 3 6 30.39 1029 10 16.0934 0 0
6:56 pm 18:56 Clear 26 -3.3 12 -11.1 55 55 SSE 3 6 30.4 1029 10 16.0934 0 0
7:56 pm 19:56 Clear 26 -3.3 14 -10 60 60 SSE 5 7 30.4 1029 10 16.0934 0 0
8:56 pm 20:56 Clear 22 -5.6 17 -8.3 82 82 ESE 6 9 30.38 1029 10 16.0934 0 0
9:56 pm 21:56 Clear 23 -5 18 -7.8 81 81 E 5 7 30.37 1029 10 16.0934 0 0
10:56 pm 22:56 Clear 24 -4.4 18 -7.8 77 77 ESE 5 7 30.36 1028 10 16.0934 0 0
11:56 pm 23:56 Clear 20 -6.7 16 -8.9 85 85 E 8 13 30.35 1028 10 16.0934 0 0

Powered by AerisWeather